Location: Holiday Acres Laynes 2 Mobile Home Park
(26.7249°N, 81.8671°W)
Time: 07:36:19
(UTC+00:00)

SMAP - Pass Details

Date: 25 November 2020
Orbit: 681 x 683 km, 98.1° (Epoch: 20 January)

Event Time Altitude Azimuth Distance (km) Brightness Sun altitude
Rises 23:03:31 0° 167° (SSE) 3,028 6.5 -6.9°
Reaches altitude 10° 23:05:45 10° 167° (SSE) 2,116 5.7 -7.4°
Maximum altitude 23:10:23 90° 258° (WSW) 686 3.1 -8.3°
Drops below altitude 10° 23:15:03 10° 348° (NNW) 2,127 5.5 -9.3°
Sets 23:17:17 0° 348° (NNW) 3,046 6.3 -9.8°
